Etusivu
METAR-TAF:

METAR-TAF

Lentoasemat :

Raton Municipal Airport (Crews Field)

Raton, New Mexico, Yhdysvallat

Leveyspiiri: 36-44-31N, Pituuspiiri: 104-39-28W, korkeus merenpinnasta: 1935 m

Tämänhetkinen sää

Tämä raportti tehtiin 1 tunti ja 3 minuuttia sitten, kello 16.53 UTC
Tuuli 8 kn idästä/koillisesta
Lämpötila -1°C
Kosteus 69%
Ilmanpaine 1030 hPa
Näkyvyys: 16.1 km
selkeää

METAR: KRTN 201653Z AUTO 06008KT 10SM CLR M01/M06 A3042 RMK AO2 SLP320 T10061056

Aika: 10:56 (17:56 UTC)


TAF: puuttuu

Säähavainnot ja -ennusteet yli 4000 lentoasemalta (METAR- ja TAF-raportit).

Käytössä olevat sääasemat on merkitty karttaan keltaisilla ja punaisilla pisteillä.

Aseta hiiri pisteen päälle nähdäksesi sääaseman nimen.

Klikkaa sitten nähdäksesi säähavainnot ja -ennusteet.

Kartan vaihtaminen: klikkaa mustalla rastilla varustettuja vihreitä pisteitä, niin voit zoomata sisään; viivalla varustettua vihreää pistettä, niin voit zoomata ulos tai vihreitä nuolia, niin pääset viereisille kartoille.


METAR-TAF: